Location: Austin
(30.3000°N, 97.7500°W)
Time: 10:41:28
(UTC-05:00)

Okean 1 - Pass Details

Date: 26 May 2023
Orbit: 520 x 548 km, 82.5° (Epoch: 30 May)

Event Time Altitude Azimuth Distance (km) Brightness Sun altitude
Exits shadow 22:21:51 34° 52° (NE) 889 4.2 -21.7°
Drops below altitude 10° 22:24:29 10° 21° (NNE) 1,781 6.2 -22.2°
Sets 22:26:42 0° 15° (NNE) 2,669 7.2 -22.5°
